Change the Weather History Date:

Sunday, August 26, 2012

  Actual Average Record
Temperature  
Mean Temperature 69 °F 64 °F  
Max Temperature 89 °F 81 °F 94 °F (2010)
Min Temperature 48 °F 47 °F 39 °F (2005)
Degree Days  
Heating Degree Days 0 2  
Month to date heating degree days 4 25  
Since 1 June heating degree days 154 227  
Since 1 July heating degree days 7 55  
Cooling Degree Days 4 1  
Month to date cooling degree days 139 80  
Year to date cooling degree days 399 194  
Since 1 June cooling degree days 399 190  
Growing Degree Days 18 (Base 50)    
Moisture  
Dew Point 42 °F    
Average Humidity 43    
Maximum Humidity 67    
Minimum Humidity 18    
Precipitation  
Precipitation 0.03 in 0.04 in 0.90 in (1977)
Month to date precipitation 0.05 0.76  
Year to date precipitation 5.95 8.72  
Sea Level Pressure  
Sea Level Pressure 29.97 in    
Wind  
Wind Speed 8 mph (NE)    
Max Wind Speed 35 mph    
Max Gust Speed 48 mph    
Visibility 9 miles    
Events Rain , Thunderstorm    
T = Trace of Precipitation, MM = Missing Value Source: NWS Daily Summary

Daily Weather History Graph

Daily Weather History Graph

Search for Another Location

Airport or City:

Trip Planner

Search our weather history database for the weather conditions in past years. The results will help you decide how hot, cold, wet, or windy it might be!

Date:

Astronomy

Aug. 26, 2012 Rise Set
Actual Time 6:44 AM MDT 8:12 PM MDT
Civil Twilight 6:14 AM MDT 8:42 PM MDT
Nautical Twilight 5:38 AM MDT 9:18 PM MDT
Astronomical Twilight 4:59 AM MDT 9:57 PM MDT
Moon 4:51 PM MDT (8/26) 1:22 AM MDT (8/26)
Length of Visible Light 14h 27m
Length of Day
13h 27m
Waxing Gibbous, 74% of the Moon is Illuminated
Aug 26
Waxing Gibbous
Aug 31
Full
Sep 8
Last Quarter
Sep 15
New
Sep 22
First Quarter

Hourly Weather History & Observations

Time (MDT) Temp. Dew Point Humidity Pressure Visibility Wind Dir Wind Speed Gust Speed Precip Events Conditions
12:53 AM 52.0 °F 32.0 °F 47% 29.91 in 6.0 mi NE 6.9 mph - N/A   Haze
1:53 AM 50.0 °F 32.0 °F 50% 29.91 in 7.0 mi ENE 6.9 mph - N/A   Clear
2:53 AM 48.9 °F 30.9 °F 50% 29.91 in 10.0 mi ENE 6.9 mph - N/A   Clear
3:53 AM 48.9 °F 30.9 °F 50% 29.93 in 10.0 mi Calm Calm - N/A   Clear
4:53 AM 48.9 °F 30.0 °F 48% 29.93 in 10.0 mi NNE 3.5 mph - N/A   Clear
5:53 AM 50.0 °F 30.0 °F 46% 29.94 in 10.0 mi NE 5.8 mph - N/A   Clear
6:53 AM 48.9 °F 32.0 °F 52% 29.96 in 10.0 mi NE 4.6 mph - N/A   Clear
7:53 AM 52.0 °F 32.0 °F 47% 29.98 in 10.0 mi NNE 3.5 mph - N/A   Partly Cloudy
9:53 AM 64.0 °F 37.0 °F 37% 30.01 in 8.0 mi North 3.5 mph - N/A   Clear
10:53 AM 73.0 °F 42.1 °F 33% 30.01 in 10.0 mi NW 3.5 mph - N/A   Clear
11:53 AM 80.1 °F 43.0 °F 27% 29.99 in 10.0 mi SW 8.1 mph - N/A   Clear
12:53 PM 84.0 °F 43.0 °F 24% 29.97 in 10.0 mi SW 13.8 mph 19.6 mph N/A   Clear
1:53 PM 84.9 °F 41.0 °F 21% 29.95 in 10.0 mi SW 10.4 mph - N/A   Clear
3:53 PM 87.1 °F 41.0 °F 20% 29.91 in 10.0 mi WSW 8.1 mph - N/A   Clear
4:53 PM 86.0 °F 42.1 °F 21% 29.89 in 10.0 mi SSE 11.5 mph 19.6 mph N/A   Scattered Clouds
5:53 PM 84.9 °F 41.0 °F 21% 29.89 in 10.0 mi Variable 4.6 mph - N/A   Clear
6:46 PM 75.2 °F 44.6 °F 34% 30.05 in 8.0 mi West 33.4 mph 48.3 mph N/A   Squalls
6:53 PM 70.0 °F 50.0 °F 49% 29.97 in 9.0 mi WSW 17.3 mph 44.9 mph 0.00 in Rain Light Rain
7:00 PM 68.0 °F 51.8 °F 56% 30.06 in 10.0 mi WNW 13.8 mph 24.2 mph 0.00 in Rain Light Rain
7:50 PM 69.8 °F 50.0 °F 49% 30.10 in 10.0 mi ESE 5.8 mph - 0.00 in Rain , Thunderstorm Light Rain
7:53 PM 68.0 °F 52.0 °F 56% 30.01 in 7.0 mi East 4.6 mph - 0.01 in Rain , Thunderstorm Light Rain
8:15 PM 66.2 °F 55.4 °F 68% 30.07 in 10.0 mi East 6.9 mph - 0.01 in   Scattered Clouds
8:53 PM 64.9 °F 54.0 °F 68% 29.98 in 10.0 mi ENE 11.5 mph - 0.01 in   Clear
9:53 PM 64.9 °F 51.1 °F 61% 29.98 in 10.0 mi East 10.4 mph 18.4 mph N/A   Clear
10:53 PM 63.0 °F 51.1 °F 65% 29.96 in 10.0 mi ENE 9.2 mph - N/A   Clear
11:53 PM 66.0 °F 52.0 °F 60% 30.04 in 10.0 mi NW 12.7 mph - 0.00 in Rain , Thunderstorm Light Thunderstorms and Rain